Flag for Ecuador Weather past 2 weeks in Santo Domingo, Ecuador

Now
57 °F

Passing clouds.


Feels Like: 56 °F
Forecast: 74 / 91 °F
Wind: 7 mph from South

Location: Latacunga Airport

Current Time: Apr 19, 2015 at 9:50:51 AM

Latest Report: Apr 19, 2015 at 9:00 AM


Visibility: N/A

Pressure: 30.48 "Hg

Humidity: 77%

Dew point: 50 °F

Location of Santo DomingoLocation

Historic Weather in Santo Domingo — Graph

°F

Santo Domingo temperature yesterday

Maximum temperature yesterday: 66 °F (at 1:00 PM)
Minimum temperature yesterday: 46 °F (at 4:00 AM)
Average temperature yesterday: 54 °F

Past Weeks' High & Low Weather Summary

 TemperatureHumidityPressure
High84 °F (Apr 9, 11:00 AM)100% (Apr 5, 11:00 PM)30.51 "Hg (Apr 5, 11:00 PM)
Low46 °F (Apr 15, 7:00 AM)49% (Apr 9, 3:00 PM)29.83 "Hg (Apr 9, 11:00 AM)
Average56 °F84%30.40 "Hg
* Reported Apr 4 8:00 AM — Apr 19 8:00 AM, Santo Domingo, Weather by CustomWeather, © 2015

Note: Actual official high and low records may vary slightly from our data, if they occured in-between our weather recording intervals... More about our weather records

Advertising

Santo Domingo weather history for previous 24 hours

 ConditionsComfort  
Time TempWeatherWind HumidityBarometerVisibility
8:00 AM
Sun, Apr 19
50 °FScattered clouds.2 mph94%30.45 "HgN/A
7:00 AM48 °FScattered clouds.2 mph94%30.42 "HgN/A
6:00 AM50 °FPassing clouds.2 mph94%30.42 "HgN/A
4:00 AM50 °FPassing clouds.2 mph94%30.39 "HgN/A
3:00 AM50 °FPassing clouds.2 mph94%30.39 "HgN/A
2:00 AM50 °FPassing clouds.No wind94%30.42 "HgN/A
1:00 AM50 °FPassing clouds.No wind94%30.45 "HgN/A
11:00 PM
Sat, Apr 18
50 °FPassing clouds.2 mph100%30.48 "HgN/A
10:00 PM52 °FPassing clouds.3 mph94%30.45 "HgN/A
9:00 PM52 °FPassing clouds.No wind94%30.42 "HgN/A
8:00 PM52 °FPassing clouds.2 mph94%30.42 "HgN/A
7:00 PM54 °FPassing clouds.3 mph88%30.39 "HgN/A
6:00 PM54 °FPartly sunny.6 mph88%30.36 "HgN/A
5:00 PM55 °FLight rain. Broken clouds.3 mph82%30.36 "HgN/A
4:00 PM54 °FLight rain. Broken clouds.5 mph88%30.36 "HgN/A
3:00 PM55 °FThunderstorms. Broken clouds.15 mph77%30.36 "HgN/A
2:00 PM66 °FScattered showers. Broken clouds.7 mph60%30.36 "HgN/A
1:00 PM66 °FPartly sunny.2 mph60%30.39 "HgN/A
12:00 PM64 °FScattered clouds.8 mph60%30.45 "HgN/A
11:00 AM63 °FScattered clouds.1 mph64%30.45 "HgN/A
9:00 AM54 °FScattered clouds.5 mph82%30.48 "HgN/A
Weather by CustomWeather, © 2015

See weather overviewHow to use our weather pages